Regional Weather Roundup
Issued by NWS

Home | Current Version | Previous Version | Text Only | Print | Product List | Glossary Off
Versions: 1 2 3 4 5 6 7 8 9 10 11 12 13 14 15 16 17 18 19 20 21 22 23 24 25 26 27 28 29 30 31 32 33 34 35 36 37 38 39 40 41 42 43 44 45 46 47 48 49 50

000
ASUS43 KIND 282109
RWRIN

WEATHER ROUNDUP FOR INDIANA
NATIONAL WEATHER SERVICE INDIANAPOLIS IN
500 PM EDT SAT MAR 28 2015

NOTE: "FAIR" INDICATES FEW OR NO CLOUDS BELOW 12,000 FEET WITH NO
SIGNIFICANT WEATHER AND/OR OBSTRUCTIONS TO VISIBILITY.

* - STATION DOES NOT REPORT WEATHER SUCH AS PRECIPITATION OR FOG.

+ - STATION NOT QUALITY CONTROLLED BY THE NATIONAL WEATHER SERVICE.
    USE DATA WITH CAUTION...ESPECIALLY DEWPOINT AND RELATIVE
    HUMIDITY OBSERVATIONS.

INZ001>003-010>013-019-020-282200-
NORTHWEST INDIANA

CITY           SKY/WX    TMP DP  RH WIND       PRES   REMARKS
GARY /AIRPORT/ SUNNY     32   3  29 NE9       30.33F WCI  24
KNOX *+          N/A     36 -44   2 CALM      30.28F
LA PORTE +     SUNNY     36  14  40 CALM      30.29F
MICHIGAN CITY+ SUNNY     32   9  37 NW6       30.32S WCI  26
MONTICELLO +   SUNNY     36  11  35 NE3       30.29F
RENSSELAER +   SUNNY     37  12  35 W3        30.30F
VALPARAISO     SUNNY     36  11  35 W6        30.29F

$$

LMZ046-743>745-282200-
SOUTHERN LAKE MICHIGAN

STATION/POSITION TIME  TEMP WIND        PRES
                       AIR  DIR/SP/G
                 (UTC) (F)  (DEG/KT/KT) (MB)
BURNS HARBOR     2100   26   30/  6/  8 1027.1F
MICHIGAN CITY    2100   28  340/  8/  9   N/A

$$

INZ004-005-014>016-021>024-282200-
NORTH CENTRAL INDIANA

CITY           SKY/WX    TMP DP  RH WIND       PRES   REMARKS
ELKHART        SUNNY     37   1  22 N6        30.28F
GOSHEN         SUNNY     36   6  28 MISG      30.28S
LOGANSPORT +   SUNNY     34  12  40 SW5       30.30F WCI  30
PERU/GRISSOM   SUNNY     35  11  36 W6        30.28S WCI  30
ROCHESTER +    SUNNY     37  10  32 S5        30.29F
SOUTH BEND     SUNNY     36  13  38 W7        30.28F
WARSAW +       SUNNY     34   9  35 W3        30.29S

$$

INZ006>009-017-018-025>027-282200-
NORTHEAST INDIANA

CITY           SKY/WX    TMP DP  RH WIND       PRES   REMARKS
ANGOLA *+      SUNNY     36   9  32 VRB7      30.26S
AUBURN +       SUNNY     36   9  32 NW8       30.28R
FORT WAYNE     MOSUNNY   36  10  34 VRB6      30.29S
HUNTINGTON +   SUNNY     35   5  28 CALM      30.28S

$$

INZ028-029-035-036-043>045-051>053-282200-
WEST CENTRAL INDIANA

CITY           SKY/WX    TMP DP  RH WIND       PRES   REMARKS
CRAWFORDSVL +  SUNNY     35   7  30 NE6       30.28F WCI  30
GREENCASTLE +  SUNNY     37  10  32 E3        30.28F
LAFAYETTE      SUNNY     37   7  28 S7        30.29F
TERRE HAUTE    SUNNY     40  15  36 CALM      30.29F

$$

INZ030>032-037>040-046>048-054>057-064-065-282200-
CENTRAL INDIANA

CITY           SKY/WX    TMP DP  RH WIND       PRES   REMARKS
CP ATTERBURY + SUNNY     37  14  38 N7        30.29F
COLUMBUS       SUNNY     37  10  32 CALM      30.29F
FISHERS *+     SUNNY     36  18  48 N6        30.29S
FRANKFORT +    SUNNY     36  15  41 CALM      30.30F
GREENWOOD *+   SUNNY     37  10  32 NW6       30.28F
INDIANAPOLIS   SUNNY     39  10  30 CALM      30.27S
-EAGLE CREEK   SUNNY     37  13  37 W5        30.27F
KOKOMO *+        N/A     36  16  44 N6        30.29S
MARION +       SUNNY     33   9  36 W5        30.29F WCI  29
MT COMFORT *+  SUNNY     36  -2  20 N6        30.29S
SHELBYVILLE    SUNNY     39  16  39 VRB7      30.28S
ZIONSVILLE +   SUNNY     36  15  42 N3        30.29S

$$

INZ033-034-041-042-049-050-058-059-282200-
EAST CENTRAL INDIANA

CITY           SKY/WX    TMP DP  RH WIND       PRES   REMARKS
MUNCIE         SUNNY     34  13  41 CALM      30.28S

$$

INZ060-061-067>069-081>083-085>088-282200-
SOUTHWEST INDIANA

CITY           SKY/WX    TMP DP  RH WIND       PRES   REMARKS
EVANSVILLE     SUNNY     43  18  36 VRB6      30.30F
HUNTINGBURG *+ SUNNY     39  18  41 SW5       30.29F
WASHINGTON +   SUNNY     38  12  33 N3        30.29F

$$

INZ062-063-066-070>080-084-089>092-282200-
SOUTH CENTRAL AND SOUTHEAST INDIANA

CITY           SKY/WX    TMP DP  RH WIND       PRES   REMARKS
BEDFORD +      SUNNY     41   5  22 CALM      30.27
BLOOMINGTON    SUNNY     40  10  29 CALM      30.26F
NORTH VERNON + SUNNY     37  16  41 N6        30.29S
SEYMOUR +      SUNNY     39  18  41 N3        30.29F

$$



USA.gov is the U.S. government's official web portal to all federal, state and local government web resources and services.